[[{"header":{"parameterUnit":"m.s-1","parameterCategory":1,"la1":30.2991,"la2":30.254,"lo1":-89.0895,"lo2":-89.0444,"dy":0.0017,"dx":0.0017,"nx":28,"ny":28,"refTime":"2023-10-05T21:00:00:Z","depth":0,"parameterNumber":2,"parameterNumberName":"U-component_of_WINDS"},"data":[0,0,0,0,0,0,0,0,0,0,0,0,0,0,0,0,0,0,0,0,0,0,0,0,0,0,0,0,0,0,0,0,0,0,0,0,0,0,0,0,0,0,0,0,0,0,0,0,0,0,0,0,0,0,0,0,0,0,0.7241,0.7241,0,0.7235,0.7235,0.7235,0.7162,0.716,0.7158,0.7156,0.7153,0.7154,0.7156,0,0,0,0,0,0,0,0,0,0,0,0,0,0.7191,0.7192,0.7241,0.7241,0.7241,0.7235,0.7235,0.7235,0.7162,0.716,0.7158,0.7155,0.7152,0.7154,0.7156,0,0,0,0,0,0,0,0,0,0,0,0,0,0.7202,0.7192,0.7241,0.7204,0.72,0.7235,0.7235,0.7235,0.7163,0.716,0.7157,0.7154,0.7152,0.7154,0.7156,0.7227,0,0,0.7164,0.7165,0,0,0,0,0,0,0,0,0.7201,0.7203,0.7209,0.7206,0.7203,0.7196,0.7216,0.7233,0.7163,0.7177,0.7156,0.7153,0.717,0.717,0.7176,0.7227,0.7227,0.7164,0.7166,0.7167,0.7167,0,0,0,0,0,0,0,0.72,0.7203,0.7239,0.7209,0.7205,0.7188,0.7186,0.7219,0.7189,0.7176,0.717,0.717,0.7167,0.7173,0.7175,0.7227,0.7164,0.7166,0.7168,0.7169,0.7336,0.7339,0,0,0,0,0,0,0.7204,0.7203,0.7239,0.7239,0.7195,0.7191,0.7189,0.7201,0.7189,0.7184,0.7173,0.7167,0.7171,0.7172,0.7175,0.7257,0.7167,0.7169,0.717,0.7333,0.7337,0.734,0,0,0,0,0,0,0.7204,0.7208,0.7239,0.7219,0.7222,0.7195,0.7209,0.7203,0.7208,0.7186,0.7181,0.7184,0.7168,0.7171,0.7215,0.7256,0.717,0.7172,0.733,0.7334,0.7339,0.7422,0,0,0,0,0,0,0.7203,0.7208,0.7235,0.7221,0.7223,0.7279,0.7211,0.7204,0.7213,0.7205,0.7196,0.7192,0.7166,0.7211,0.7217,0.7257,0.7174,0.7326,0.7332,0.7337,0.7415,0.7429,0.744,0,0,0,0,0,0.7201,0.7259,0.7237,0.7241,0.7256,0.7282,0.7283,0.7252,0.7216,0.7243,0.7228,0.7192,0.725,0.7216,0.7222,0.7264,0.7323,0.733,0.7337,0.741,0.7426,0.744,0,0,0,0,0,0,0.728,0.7257,0.7231,0.7287,0.7287,0.7269,0.7302,0.7271,0.7282,0.7274,0.7236,0.7234,0.7284,0.7278,0.7241,0.7332,0.728,0.7289,0.7334,0.7349,0.7361,0.7362,0.7176,0,0,0,0,0,0.7304,0.7326,0.7305,0.7356,0.7357,0.733,0.734,0.7316,0.7315,0.7314,0.7303,0.7304,0.7322,0.7335,0.7351,0.7414,0.7411,0.7446,0.7458,0.7468,0.7476,0.7509,0.7524,0.7362,0.7362,0.7362,0,0,0.7354,0.7344,0.736,0.7371,0.7368,0.7393,0.733,0.7359,0.7377,0.7319,0.7359,0.7351,0.7349,0.7403,0.7426,0.74,0.752,0.7477,0.7485,0.7487,0.7517,0.7532,0.7546,0.7367,0.7366,0.7365,0,0,0.7457,0.7451,0.7493,0.7491,0.7487,0.7468,0.7478,0.7465,0.7458,0.7497,0.7454,0.7475,0.7507,0.7508,0.7512,0.7615,0.7582,0.7621,0.7686,0.7718,0.7731,0.7742,0.7779,0.7792,0.7629,0.7629,0.7629,0,0.7519,0.7554,0.7518,0.755,0.7556,0.7503,0.7546,0.7546,0.7548,0.7553,0.7524,0.7563,0.7558,0.7611,0.7636,0.7641,0.7652,0.7622,0.7732,0.7743,0.7752,0.7787,0.7801,0.7634,0.7633,0.7633,0.7632,0,0.7631,0.7656,0.769,0.7692,0.7702,0.7739,0.7709,0.7723,0.7698,0.7683,0.7724,0.7716,0.7729,0.774,0.7716,0.7789,0.7773,0.7738,0.7686,0.7773,0.7805,0.7818,0.7641,0.7639,0.7637,0.7636,0,0,0.7785,0.7766,0.7779,0.7779,0.777,0.7789,0.7823,0.7835,0.7848,0.7851,0.7879,0.7908,0.7875,0.788,0.7856,0.7884,0.7966,0.7846,0.7845,0.7869,0.8046,0.8073,0.8089,0.7944,0.7946,0.7948,0.8046,0,0.7884,0.7941,0.791,0.7971,0.7993,0.7943,0.7973,0.7972,0.7958,0.7975,0.796,0.7981,0.7936,0.7939,0.7965,0.7951,0.8001,0.7943,0.797,0.7971,0.7972,0.8105,0.8134,0.8227,0.8059,0.8061,0.8062,0,0.8008,0.8015,0.8079,0.8065,0.8073,0.8101,0.8109,0.8126,0.8123,0.8111,0.8116,0.8085,0.8118,0.8066,0.8111,0.8072,0.8081,0.8076,0.8079,0.808,0.8023,0.8111,0.8256,0.8271,0.8082,0.808,0.8079,0,0.8114,0.814,0.8181,0.8182,0.8168,0.8188,0.8183,0.8177,0.8186,0.8193,0.8198,0.821,0.8216,0.8226,0.8199,0.8163,0.8248,0.8193,0.8239,0.824,0.826,0.8259,0.8409,0.8266,0.8265,0.8265,0.8265,0,0.8229,0.827,0.8228,0.8254,0.8298,0.8261,0.8306,0.8296,0.8291,0.8314,0.8271,0.8294,0.8256,0.8275,0.8254,0.8295,0.8298,0.829,0.8284,0.8294,0.8295,0.83,0.8293,0.8269,0.8268,0.8267,0.8267,0,0.8356,0.8329,0.837,0.8353,0.8349,0.8383,0.8367,0.839,0.8373,0.8403,0.8408,0.8381,0.8401,0.8375,0.8392,0.8378,0.8434,0.8418,0.8435,0.843,0.8478,0.8474,0.8637,0.8656,0.85,0.8501,0.8503,0,0.8431,0.8461,0.8446,0.8457,0.8454,0.8474,0.8482,0.8448,0.8458,0.8457,0.848,0.8496,0.8507,0.8541,0.8524,0.8538,0.8522,0.8578,0.8524,0.8533,0.8523,0.8522,0.8525,0.8589,0.8591,0.8593,0.8594,0,0.8567,0.8552,0.8566,0.8574,0.8585,0.8591,0.8593,0.8606,0.8569,0.8583,0.8603,0.8611,0.8628,0.8645,0.8654,0.8649,0.8616,0.8611,0.8622,0.8633,0.8642,0.8638,0.8465,0.8608,0.8606,0.8605,0.8605,0.8604,0.867,0.8694,0.8687,0.8704,0.8701,0.8704,0.8725,0.871,0.8725,0.8736,0.8714,0.8739,0.8735,0.8743,0.8742,0.8761,0.8736,0.8753,0.8757,0.8762,0.8769,0.8638,0.8762,0.8762,0.8761,0.8761,0.8761,0,0.8805,0.8797,0.8812,0.8816,0.8829,0.8795,0.8796,0.881,0.8831,0.883,0.8841,0.8863,0.8879,0.8863,0.8875,0.8894,0.8879,0.8899,0.8897,0.8897,0.879,0.8779,0.891,0.891,0.891,0.891,0.891,0.891,0.8876,0.8915,0.8899,0.8937,0.8929,0.8952,0.8955,0.8958,0.8956,0.8983,0.8995,0.8984,0.8976,0.8988,0.9001,0.8996,0.9003,0.9028,0.9018,0.8919,0.8904,0.889,0.8879,0.903,0.903,0.9122,0.9123,0.9124]},{"header":{"parameterUnit":"m.s-1","parameterCategory":1,"la1":30.2991,"la2":30.254,"lo1":-89.0895,"lo2":-89.0444,"dy":0.0017,"dx":0.0017,"nx":28,"ny":28,"refTime":"2023-10-05T21:00:00:Z","depth":0,"parameterNumber":3,"parameterNumberName":"V-component_of_WINDS"},"data":[0,0,0,0,0,0,0,0,0,0,0,0,0,0,0,0,0,0,0,0,0,0,0,0,0,0,0,0,0,0,0,0,0,0,0,0,0,0,0,0,0,0,0,0,0,0,0,0,0,0,0,0,0,0,0,0,0,0,-2.8834,-2.8833,0,-2.8754,-2.8753,-2.8752,-2.8742,-2.8743,-2.8744,-2.8745,-2.8655,-2.8652,-2.8648,0,0,0,0,0,0,0,0,0,0,0,0,0,-2.8972,-2.8969,-2.8834,-2.8833,-2.8832,-2.8754,-2.8753,-2.8752,-2.8742,-2.8743,-2.8744,-2.8745,-2.8656,-2.8652,-2.8648,0,0,0,0,0,0,0,0,0,0,0,0,0,-2.8904,-2.8969,-2.8834,-2.8818,-2.8816,-2.8754,-2.8753,-2.8752,-2.8742,-2.8743,-2.8745,-2.8746,-2.8657,-2.8652,-2.8648,-2.8594,0,0,-2.8633,-2.8631,0,0,0,0,0,0,0,0,-2.8908,-2.8899,-2.8821,-2.8819,-2.8816,-2.876,-2.8769,-2.8698,-2.8742,-2.877,-2.8745,-2.8746,-2.8688,-2.8681,-2.8663,-2.859,-2.8586,-2.8633,-2.863,-2.8628,-2.8627,0,0,0,0,0,0,0,-2.8912,-2.8902,-2.8802,-2.882,-2.8817,-2.8813,-2.8804,-2.8755,-2.8723,-2.8767,-2.8767,-2.8758,-2.8687,-2.8667,-2.8661,-2.8585,-2.8633,-2.8629,-2.8626,-2.8624,-2.8466,-2.8465,0,0,0,0,0,0,-2.8921,-2.8906,-2.8804,-2.8799,-2.8866,-2.8809,-2.88,-2.8776,-2.8723,-2.8717,-2.8757,-2.8758,-2.8675,-2.8666,-2.8657,-2.8593,-2.8628,-2.8623,-2.8621,-2.8468,-2.8466,-2.8465,0,0,0,0,0,0,-2.8924,-2.8912,-2.8808,-2.8853,-2.8839,-2.8806,-2.8779,-2.8774,-2.8755,-2.8715,-2.8709,-2.8743,-2.8676,-2.8664,-2.8611,-2.8589,-2.8621,-2.8617,-2.8469,-2.8467,-2.8465,-2.8462,0,0,0,0,0,0,-2.8928,-2.8913,-2.8894,-2.8852,-2.8837,-2.8764,-2.8778,-2.8772,-2.8748,-2.8748,-2.8701,-2.8694,-2.8676,-2.8618,-2.8606,-2.8583,-2.8613,-2.8471,-2.8468,-2.8466,-2.8463,-2.846,-2.8457,0,0,0,0,0,-2.8933,-2.8893,-2.8893,-2.888,-2.8812,-2.8763,-2.8754,-2.8735,-2.8746,-2.8725,-2.8701,-2.8696,-2.8594,-2.8613,-2.8599,-2.8575,-2.8472,-2.8469,-2.8466,-2.8465,-2.846,-2.8457,0,0,0,0,0,0,-2.8928,-2.8887,-2.8886,-2.8832,-2.8802,-2.8761,-2.8734,-2.8731,-2.8694,-2.8695,-2.8672,-2.8661,-2.861,-2.8587,-2.8608,-2.8521,-2.8534,-2.8528,-2.8538,-2.8533,-2.853,-2.8535,-2.8609,0,0,0,0,0,-2.8922,-2.8888,-2.8853,-2.8809,-2.8794,-2.8767,-2.8745,-2.8734,-2.87,-2.8686,-2.8657,-2.8623,-2.8583,-2.8557,-2.8518,-2.8461,-2.8451,-2.8438,-2.8434,-2.8432,-2.8426,-2.8396,-2.8389,-2.8455,-2.8455,-2.8455,0,0,-2.8906,-2.888,-2.8859,-2.8807,-2.8782,-2.8746,-2.8756,-2.8716,-2.8689,-2.8679,-2.8628,-2.8607,-2.8566,-2.8512,-2.8486,-2.8491,-2.8407,-2.8428,-2.8426,-2.8422,-2.8392,-2.8386,-2.838,-2.8453,-2.8453,-2.8453,0,0,-2.886,-2.8837,-2.8798,-2.8775,-2.8738,-2.8722,-2.8713,-2.8674,-2.866,-2.861,-2.8603,-2.8569,-2.8501,-2.8473,-2.845,-2.8398,-2.8392,-2.8386,-2.8367,-2.8337,-2.8332,-2.8328,-2.8309,-2.8303,-2.8381,-2.8381,-2.8381,0,-2.8844,-2.8792,-2.8778,-2.874,-2.8718,-2.8712,-2.8673,-2.8649,-2.8601,-2.8585,-2.8592,-2.8509,-2.8481,-2.8421,-2.8409,-2.8391,-2.8379,-2.839,-2.8335,-2.833,-2.8325,-2.8307,-2.8301,-2.8381,-2.8381,-2.8381,-2.8381,0,-2.8774,-2.8738,-2.8711,-2.8669,-2.8644,-2.8605,-2.8585,-2.856,-2.8553,-2.8536,-2.8485,-2.8453,-2.8408,-2.8394,-2.8384,-2.8332,-2.8337,-2.834,-2.8352,-2.8319,-2.8302,-2.8295,-2.838,-2.838,-2.838,-2.838,0,0,-2.8718,-2.8674,-2.8664,-2.8646,-2.8607,-2.8578,-2.854,-2.85,-2.848,-2.8448,-2.8414,-2.8359,-2.8364,-2.8337,-2.8325,-2.83,-2.8262,-2.8306,-2.8305,-2.8299,-2.8204,-2.8201,-2.8193,-2.826,-2.8258,-2.8257,-2.8207,0,-2.8667,-2.8601,-2.859,-2.8531,-2.8498,-2.8495,-2.8461,-2.8433,-2.8417,-2.8385,-2.8366,-2.8327,-2.8335,-2.832,-2.8295,-2.8272,-2.8242,-2.8276,-2.8226,-2.8225,-2.8235,-2.8184,-2.818,-2.8134,-2.82,-2.8199,-2.8198,0,-2.8597,-2.8568,-2.8507,-2.8477,-2.8462,-2.8432,-2.8397,-2.8367,-2.8336,-2.8326,-2.83,-2.8292,-2.8251,-2.8267,-2.821,-2.8233,-2.8213,-2.8199,-2.8197,-2.819,-2.8208,-2.8175,-2.8119,-2.8112,-2.8188,-2.8188,-2.8189,0,-2.8562,-2.8507,-2.8465,-2.8449,-2.8412,-2.8392,-2.8375,-2.8346,-2.8324,-2.8292,-2.8277,-2.824,-2.8219,-2.8191,-2.8173,-2.8186,-2.8118,-2.8132,-2.8107,-2.8107,-2.809,-2.8091,-2.8029,-2.8079,-2.8079,-2.808,-2.808,0,-2.8504,-2.8467,-2.8449,-2.8422,-2.8381,-2.8369,-2.8328,-2.8311,-2.8286,-2.8255,-2.8249,-2.822,-2.8199,-2.8167,-2.8153,-2.8108,-2.8099,-2.8089,-2.8085,-2.8088,-2.8089,-2.8073,-2.8075,-2.8078,-2.8078,-2.8079,-2.8079,0,-2.8457,-2.8443,-2.8397,-2.8368,-2.836,-2.8331,-2.8305,-2.8278,-2.8264,-2.8226,-2.8216,-2.8192,-2.8154,-2.8135,-2.8086,-2.8077,-2.8027,-2.8026,-2.8038,-2.8036,-2.8012,-2.8014,-2.7936,-2.7925,-2.7984,-2.7983,-2.7983,0,-2.842,-2.8392,-2.8362,-2.8343,-2.8327,-2.8296,-2.8275,-2.8263,-2.824,-2.8206,-2.8183,-2.8147,-2.8116,-2.8056,-2.8033,-2.7997,-2.7994,-2.7969,-2.7988,-2.7993,-2.7992,-2.7994,-2.7991,-2.7965,-2.7964,-2.7964,-2.7963,0,-2.8356,-2.8353,-2.8324,-2.8294,-2.827,-2.8245,-2.822,-2.8204,-2.8187,-2.8163,-2.8127,-2.8103,-2.8057,-2.802,-2.7983,-2.7964,-2.796,-2.7959,-2.7951,-2.7952,-2.7961,-2.7956,-2.8028,-2.7959,-2.796,-2.796,-2.796,-2.796,-2.8312,-2.8288,-2.8265,-2.8234,-2.8215,-2.8193,-2.8168,-2.8153,-2.8123,-2.8086,-2.8081,-2.8042,-2.8014,-2.7965,-2.7945,-2.7914,-2.7919,-2.7907,-2.7904,-2.7901,-2.79,-2.7968,-2.7907,-2.7907,-2.7907,-2.7907,-2.7908,0,-2.8248,-2.8234,-2.8206,-2.8174,-2.815,-2.8154,-2.8127,-2.8106,-2.8073,-2.8049,-2.8021,-2.798,-2.7945,-2.7922,-2.7887,-2.7867,-2.7864,-2.7857,-2.7858,-2.7854,-2.7898,-2.7908,-2.786,-2.786,-2.786,-2.786,-2.786,-2.786,-2.8211,-2.8172,-2.8166,-2.8117,-2.8102,-2.8067,-2.8052,-2.8032,-2.8013,-2.7969,-2.7941,-2.7928,-2.7904,-2.7868,-2.7837,-2.7831,-2.7817,-2.7811,-2.7804,-2.7845,-2.785,-2.7855,-2.7864,-2.7808,-2.7808,-2.7763,-2.7762,-2.7762]}]]